Showing default

GLOBAL-2, 43812

Orbit data source: Space-Track

GLOBAL-2, 43812 is a payload satellite owned by BlackSky Global (US) in SSO that was launched on Mon, 03 Dec 2018 UTC via an FALCON 9 launch vehicle from the Air Force Western Test Range (AFWTR). Payload-class satellites include a variety of spacecraft equipped with specific instruments for various scientific and technological missions. These include communications satellites like Starlink; space stations such as the ISS; scientific satellites like the Hubble; Earth observation satellites from companies like Planet Labs, Umbra, and HawkEye 360; GPS; miniature CubeSats for education and research; and military/defense satellites.

Loading next visibility...
Identifier
43812, 2018-099BG
Orbit
SSO
Country
Flag of USUS
Related business
Manufacturer
LeoStella
Mission
Operational Commercial Imaging
Bus & Motor
BSKY, Unknown motor
Mass
55 kg wet, ~50 kg dry
Launch date (UTC)
2018-12-03 (7 years ago)
Launch vehicle
FALCON 9
Launch site
Air Force Western Test Range (AFWTR)
Object type
Payload
Rocket body
Debris
Shape & HBR
Box, 1.0 m
Radar Cross Section
0.625 m², Medium (>0.1 m² and < 1m²)

Expand to show TLE details & history
Last TLE update: 20 hours ago

TLE from 20 hours ago
0 GLOBAL-2
1 43812U 18099BG  26134.57805118  .00002212  00000-0  14579-3 0  9992
2 43812  97.3584 172.4898 0004159 268.7689  91.3064 15.08466678406846
Epoch: 2026-05-14T13:52Z
TLE epoch observation values (Epoch: 2026-05-14T13:52:23.621Z)
Latitude
-0.00001°
Longitude
92.06967°
Altitude
544.028 km
Speed
7.59 km/s
True Right ascension
11h 29m 57s
True Declination
0° 00' 00"
Sunlit
Object was in full shadow at epoch
Visualization orbit readout
Latitude
Unknown
Longitude
Unknown
Altitude
Unknown
Speed
Unknown
Apparent Right ascension
Unknown
Apparent Declination
Unknown
Sunlit
N/A
Visualization observer readout
Local Sidereal Time
18:42:03
Azimuth
Unknown
Elevation
Unknown
Doppler factor
Unknown
Orbital elements
Apogee altitude
540.74 km
Perigee altitude
534.988 km
Semi-major axis
6,916.001 km
Eccentricity
0.00042
Inclination
97.3584°
RAAN
172.4898°
Arg. of periapsis
268.7689°
True anomaly
91.35405°
Mean anomaly
91.3064°
Eccentric anomaly
91.33022°
Mean motion
3.77364 °/min
Orbital period
95.4 mins
BSTAR
0.00014579
Loading maneuver chart data...
Computing Atmospheric mass density...
Loading historical data...
Loading historical data...
Loading historical data...
Loading historical data...
Loading historical data...
Loading historical data...
Loading historical data...

Documentation

Showing up to 5 results
|